Flag for Ireland Weather past 2 weeks in Cork, Ireland

Now
36 °F

Passing clouds.


Feels Like: 28 °F
Forecast: 35 / 43 °F
Wind: 13 mph from Northwest

Location: Cork Airport

Current Time: Jan 31, 2015 at 6:31:41 AM

Latest Report: Jan 31, 2015 at 5:00 AM


Visibility: 19 mi

Pressure: 29.32 "Hg

Humidity: 80%

Dew point: 30 °F

Location of CorkLocation

Historic Weather in Cork — Graph

°F

Cork temperature yesterday

Maximum temperature yesterday: 42 °F (at 2:00 PM)
Minimum temperature yesterday: 35 °F (at 10:00 PM)
Average temperature yesterday: 39 °F

Past Weeks' High & Low Weather Summary

 TemperatureHumidityPressure
High51 °F (Jan 23, 1:00 PM)100% (Jan 20, 4:00 AM)30.53 "Hg (Jan 20, 4:00 AM)
Low30 °F (Jan 19, 4:00 AM)59% (Jan 24, 1:00 PM)29.15 "Hg (Jan 30, 12:00 AM)
Average40 °F89%29.94 "Hg
* Reported Jan 16 5:00 AM — Jan 31 5:00 AM, Cork, Weather by CustomWeather, © 2014

Note: Actual official high and low records may vary slightly from our data, if they occured in-between our weather recording intervals... More about our weather records

Advertising

Cork weather history for previous 24 hours

 ConditionsComfort  
Time TempWeatherWind HumidityBarometerVisibility
5:00 AM
Jan 31
36 °FPassing clouds.13 mph80%29.32 "Hg19 mi
4:00 AM36 °FPassing clouds.12 mph81%29.32 "Hg19 mi
3:00 AM36 °FPassing clouds.8 mph84%29.32 "Hg19 mi
2:00 AM35 °FPassing clouds.7 mph88%29.29 "Hg19 mi
1:00 AM36 °FPassing clouds.8 mph87%29.26 "Hg19 mi
12:00 AM35 °FPassing clouds.7 mph88%29.26 "Hg19 mi
11:00 PM
Jan 30
35 °FPassing clouds.7 mph91%29.23 "Hg19 mi
10:00 PM35 °FPassing clouds.9 mph91%29.21 "Hg19 mi
8:00 PM36 °FPassing clouds.6 mph87%29.21 "Hg19 mi
7:00 PM37 °FPassing clouds.7 mph87%29.18 "Hg19 mi
6:00 PM38 °FPassing clouds.7 mph85%29.18 "Hg22 mi
5:00 PM40 °FPassing clouds.7 mph82%29.15 "Hg25 mi
4:00 PM41 °FPassing clouds.9 mph81%29.15 "Hg28 mi
3:00 PM39 °FScattered clouds.7 mph88%29.15 "Hg28 mi
2:00 PM42 °FPartly sunny.9 mph74%29.15 "Hg19 mi
1:00 PM41 °FScattered clouds.9 mph73%29.18 "Hg22 mi
12:00 PM42 °FScattered clouds.8 mph79%29.18 "Hg22 mi
11:00 AM41 °FPassing clouds.8 mph79%29.21 "Hg22 mi
10:00 AM40 °FPassing clouds.10 mph82%29.21 "Hg25 mi
9:00 AM38 °FPassing clouds.7 mph82%29.21 "Hg22 mi
8:00 AM39 °FPassing clouds.8 mph78%29.21 "Hg16 mi
7:00 AM39 °FPassing clouds.10 mph85%29.21 "Hg19 mi
6:00 AM39 °FPassing clouds.12 mph88%29.21 "Hg19 mi
Weather by CustomWeather, © 2014

See weather overviewHow to use our weather pages